Theta_e
316 315 315 315 315 316 316 316 316 316 315 316 316 316 316 317 317 317 317 317 317 317 318 318 316 315 317 320 323 325 325 324 324 323 322 322 323 325 326 328 328 329 333 331
316 316 316 316 317 316 316 316 316 316 316 315 316 316 316 317 317 317 317 317 317 318 318 318 317 315 314 316 319 319 319 319 319 319 318 318 318 318 319 319 325 328 330 330
316 315 315 315 315 316 316 316 315 316 316 315 316 317 317 317 317 317 317 317 317 318 318 318 319 316 314 314 315 316 315 315 315 316 317 316 316 316 315 315 319 326 328 328
315 314 314 315 315 315 314 315 315 315 316 315 316 315 315 315 316 317 318 317 317 318 318 317 318 318 315 314 313 313 314 314 314 315 316 316 316 315 313 312 314 323 325 325
314 315 315 315 314 314 315 315 315 316 317 317 317 317 315 315 316 316 316 319 318 319 319 318 317 316 316 314 313 313 312 313 313 315 315 316 314 313 315 316 313 320 323 323
315 312 314 315 313 314 314 316 316 317 316 316 315 315 315 316 315 316 316 317 317 317 317 316 315 315 314 313 312 312 311 312 312 313 315 315 314 314 317 315 311 316 320 319
314 314 314 313 314 313 315 316 315 317 321 318 315 316 316 316 315 316 316 316 316 316 315 316 315 312 311 311 310 311 311 311 311 312 313 314 313 314 316 314 311 313 316 316
314 314 314 313 315 315 316 316 317 322 319 318 314 317 315 316 316 316 315 316 316 316 315 315 315 314 312 310 309 310 309 310 310 311 312 313 313 314 315 312 311 312 317 316
314 314 313 313 313 314 315 316 316 318 319 316 315 316 316 317 315 315 315 315 315 316 317 315 315 314 312 309 309 309 309 309 310 310 311 311 311 312 314 312 310 309 315 315
314 315 313 312 312 313 313 314 316 315 323 321 316 317 316 317 316 316 316 315 316 316 316 315 314 312 310 309 309 308 309 309 309 309 310 310 310 311 312 310 310 309 311 312
313 313 314 312 314 314 313 313 314 314 316 320 320 317 315 316 317 316 318 317 315 315 315 315 314 311 309 308 308 308 308 308 308 308 309 308 309 309 309 309 308 307 309 308
314 314 318 315 313 313 314 314 314 317 317 315 317 318 315 315 317 316 316 316 315 312 312 312 312 310 308 307 307 307 308 308 308 308 307 307 308 308 307 307 305 304 307 307
314 315 320 318 316 312 313 314 314 315 315 323 322 317 314 315 315 315 314 316 316 314 314 312 310 309 309 308 308 307 307 307 307 307 306 306 307 305 304 304 302 302 305 306
312 316 319 321 319 317 315 314 314 314 317 317 318 317 316 316 316 316 315 316 316 315 315 314 313 312 310 309 308 307 307 307 306 306 306 305 305 305 303 303 301 301 304 304
310 316 316 317 317 317 319 319 317 315 315 317 317 317 316 316 316 316 316 315 315 315 314 315 314 314 313 310 307 306 306 306 306 305 305 304 304 304 303 302 300 298 300 302
311 315 314 316 315 315 318 319 318 318 318 317 316 317 316 316 316 316 315 315 315 315 314 314 314 314 311 311 308 307 306 305 304 305 304 303 303 302 301 299 297 297 298 298
309 312 315 317 315 313 316 317 318 318 318 317 318 316 316 316 316 317 317 317 316 315 315 314 314 313 312 310 307 307 306 305 303 303 302 302 301 300 298 297 295 295 295 295
308 309 311 313 313 315 315 313 315 317 317 317 317 316 316 316 316 316 316 317 316 315 314 314 313 313 311 308 307 305 304 303 302 301 300 300 299 298 297 295 294 293 293 293
306 308 309 310 310 310 309 310 311 311 312 314 317 317 317 316 316 317 316 316 315 314 313 308 306 304 303 303 302 301 299 298 298 298 297 297 297 296 294 293 292 291 291 290
307 308 309 310 312 310 307 308 309 311 314 310 311 311 312 314 318 318 310 308 308 306 304 302 301 299 299 298 296 295 296 296 295 295 295 295 295 294 293 292 291 290 289 288
307 307 309 311 311 310 311 309 309 313 312 305 305 307 308 310 311 308 306 306 305 302 299 298 297 295 293 291 292 292 293 292 293 292 293 293 293 292 292 291 290 288 287 286
303 305 307 309 309 310 306 307 312 307 305 304 304 305 304 304 302 303 303 302 300 298 295 293 292 291 289 289 290 291 290 290 289 290 290 290 290 290 289 289 287 287 285 284
302 302 304 307 309 307 305 306 306 305 305 305 303 303 302 301 299 299 299 298 297 294 291 289 288 288 287 287 288 289 287 287 287 288 287 287 287 287 287 287 285 284 284 283
301 301 302 302 301 301 302 303 305 304 303 303 302 301 300 299 298 296 295 294 293 291 288 287 287 286 285 285 285 286 286 286 286 286 286 286 286 285 285 285 285 284 284 284
301 301 302 302 302 302 304 305 305 304 302 301 301 299 298 297 295 295 294 292 290 289 287 286 285 284 283 284 284 286 285 286 286 286 286 286 286 286 285 285 285 285 285 285
299 299 300 301 300 300 300 301 303 301 302 301 299 298 294 293 293 293 292 289 288 287 285 283 282 282 281 283 284 286 286 286 286 286 286 286 286 286 285 285 285 285 285 285
Wind_Speed
4 8 10 14 14 14 6 7 9 3 3 4 11 18 17 17 19 19 19 20 19 20 19 22 24 27 27 28 29 31 30 27 26 26 24 23 23 22 24 30 31 29 29 33
5 13 14 3 1 6 10 13 14 14 3 4 13 20 18 18 23 21 20 21 20 19 19 19 21 24 29 30 32 30 31 29 29 25 24 22 22 22 22 27 35 33 32 31
16 3 8 7 7 10 14 15 13 14 3 12 13 16 16 15 17 15 20 21 21 21 19 16 18 24 25 29 32 34 34 32 30 28 23 21 15 17 20 23 34 38 36 35
12 8 6 10 15 13 16 12 14 12 8 8 2 10 17 17 18 15 15 18 19 17 15 14 14 22 26 28 30 32 31 32 32 32 28 30 27 23 23 24 32 36 36 36
6 9 12 13 10 10 5 3 6 6 9 10 14 8 8 11 10 15 17 16 15 13 12 10 11 18 19 22 25 27 27 29 30 32 32 30 27 23 18 20 23 34 35 36
6 1 5 7 4 6 9 5 4 2 4 9 14 15 14 14 11 8 7 7 6 6 5 5 7 8 14 16 19 22 25 27 28 29 31 29 27 24 21 21 23 33 35 36
13 10 4 3 5 4 10 7 4 5 6 11 5 6 16 9 9 10 11 12 11 2 4 5 6 8 12 16 19 22 24 27 28 29 29 30 27 25 24 23 23 32 36 38
15 12 16 13 16 10 14 15 8 9 8 12 5 10 9 3 6 8 10 13 11 8 6 8 7 8 10 12 15 17 20 23 26 28 27 26 26 25 25 23 23 30 39 40
12 13 4 3 11 14 8 11 14 13 3 5 10 20 19 11 8 14 16 15 14 10 7 8 9 10 8 10 12 14 15 16 20 23 24 25 26 26 24 22 25 28 35 37
8 17 4 4 3 8 8 2 8 8 6 12 14 19 15 10 13 13 10 10 9 7 6 7 6 8 7 8 10 11 13 14 16 19 22 24 26 26 26 23 23 24 32 33
11 7 3 4 11 15 8 10 8 6 9 7 12 13 13 8 7 4 5 4 6 9 9 7 3 3 6 6 8 9 11 13 15 18 21 23 24 25 25 25 25 26 30 31
9 6 13 19 7 7 14 22 22 11 12 7 11 19 0 6 4 4 9 9 3 3 4 3 2 2 4 6 8 10 11 13 15 17 20 23 23 24 25 26 25 27 35 34
4 5 3 5 10 2 8 15 14 16 9 10 12 13 4 6 4 10 7 4 5 4 4 2 2 3 7 8 9 9 11 13 15 17 19 22 25 26 26 26 25 31 33 34
5 4 9 11 6 4 6 17 19 17 10 20 19 27 26 22 19 10 8 8 9 8 7 7 5 7 10 11 11 10 13 15 17 19 22 25 28 28 27 26 28 33 33 33
2 5 13 21 22 23 20 14 12 19 23 22 27 23 32 23 20 20 20 17 19 19 17 15 8 9 12 14 15 17 17 17 20 21 23 27 25 24 25 27 28 30 33 34
8 5 9 18 22 19 20 22 24 24 25 23 27 28 28 24 20 19 21 20 21 18 17 19 18 13 9 16 17 19 19 23 23 25 28 25 25 24 27 28 31 32 32 31
3 1 3 11 12 6 7 22 24 26 26 24 23 28 23 24 21 20 20 14 17 18 19 19 17 13 13 14 19 19 21 22 25 28 28 28 27 27 29 29 30 31 31 30
8 7 3 7 8 10 7 10 9 14 20 21 24 26 27 26 28 29 20 17 20 19 19 15 14 16 13 12 12 13 16 18 22 26 27 27 27 28 28 29 31 30 30 30
18 12 8 11 18 19 24 22 13 14 19 17 16 20 24 26 23 26 17 15 18 16 11 8 10 11 12 11 11 13 14 13 18 20 21 23 25 25 26 27 28 27 27 27
12 16 11 12 11 14 14 14 11 5 9 13 13 15 16 16 11 14 12 9 8 9 9 10 12 13 13 12 17 13 12 11 14 15 17 18 21 24 25 25 24 24 24 23
5 4 13 14 12 7 8 8 5 12 7 14 9 15 12 8 7 15 10 11 10 7 12 14 11 10 11 15 13 10 7 7 9 9 11 14 16 20 21 20 20 20 19 19
9 7 8 8 9 15 3 3 2 2 13 11 6 4 8 11 11 11 14 7 7 7 8 9 11 10 10 11 10 8 5 4 2 5 8 10 12 15 16 18 16 16 18 18
12 14 10 8 5 4 6 6 9 6 8 5 5 6 9 9 9 9 8 9 7 8 11 8 7 7 9 10 8 6 5 2 3 6 7 8 10 11 14 17 18 17 16 16
14 13 13 14 18 21 20 13 6 7 8 5 7 8 5 10 9 10 7 4 4 5 5 8 6 5 8 10 9 6 4 4 7 11 11 10 10 11 12 11 13 14 13 12
9 6 11 12 16 15 15 13 9 8 7 6 9 9 9 8 9 8 9 5 4 4 7 4 3 4 6 7 9 9 8 8 12 14 13 11 10 9 10 11 9 9 9 12
12 18 13 14 17 14 17 10 7 8 10 8 7 6 6 7 8 4 4 4 4 2 2 0 3 4 5 7 8 8 8 8 14 16 14 14 14 12 11 12 11 7 4 5
Wind_Direction
189 214 212 223 228 261 292 293 270 226 143 279 261 271 267 272 271 266 260 257 257 255 246 232 225 217 213 213 211 211 209 209 204 203 205 209 213 215 222 218 220 218 214 213
181 225 231 237 245 216 249 259 262 271 106 243 283 280 276 268 262 259 262 261 259 255 247 233 221 211 209 210 210 209 210 208 206 204 206 211 217 222 225 231 225 223 221 219
230 226 249 181 199 214 236 246 257 263 294 239 286 273 266 249 248 265 260 262 263 259 256 242 210 214 212 212 209 208 207 206 204 203 202 205 217 218 219 221 224 223 221 221
244 225 162 211 230 219 249 239 253 269 281 273 223 285 284 284 272 248 256 259 255 251 246 245 252 210 212 218 215 212 208 204 204 201 200 200 204 208 221 221 222 217 218 219
196 193 210 223 226 209 250 30 239 258 261 290 239 266 266 255 262 262 256 259 266 268 268 255 232 232 220 218 215 214 210 208 207 204 205 205 207 215 217 209 217 216 216 219
270 36 220 225 67 233 135 121 120 221 275 263 257 236 263 251 269 258 265 261 251 272 289 254 240 233 217 218 206 207 208 211 210 209 210 211 213 214 210 201 208 211 214 216
217 221 162 180 134 127 201 193 239 239 202 252 43 289 252 294 279 251 271 296 293 256 273 253 210 201 205 201 198 203 207 210 207 209 214 218 221 219 217 206 206 208 213 215
216 229 187 185 218 195 198 204 212 237 243 267 103 238 272 248 305 299 264 271 290 283 255 250 228 215 205 202 203 205 208 211 208 208 213 221 225 225 222 216 212 212 217 216
218 234 189 200 211 217 177 221 246 268 296 284 253 266 271 232 234 262 269 272 271 289 253 248 244 229 216 201 200 204 207 214 215 215 212 219 223 223 225 220 217 217 219 220
251 263 163 136 185 248 236 306 208 218 232 238 256 257 258 289 273 266 256 275 294 312 297 249 231 201 194 199 196 199 203 212 216 215 217 218 219 219 219 219 217 217 221 221
234 239 151 170 209 207 191 220 224 246 227 245 256 260 271 302 13 332 353 315 313 333 338 300 231 208 180 190 192 199 206 211 214 215 218 220 220 219 217 219 214 213 211 216
217 252 244 242 232 261 261 226 218 220 223 240 267 269 257 334 4 341 323 327 336 302 325 337 315 266 218 215 216 207 209 216 220 221 220 218 219 217 218 218 214 215 218 218
347 233 244 257 231 207 248 234 245 242 247 236 231 256 253 357 311 297 288 340 325 319 325 281 176 234 261 242 228 223 218 219 219 225 225 222 215 213 216 217 213 219 220 222
92 224 235 239 270 6 219 237 235 231 237 242 245 257 270 271 282 268 246 255 282 269 274 281 270 246 227 229 238 236 235 227 223 220 223 224 221 210 212 214 215 223 223 224
197 235 237 256 268 275 274 271 258 239 240 235 255 252 267 267 272 271 283 288 290 297 300 300 261 246 235 221 229 236 240 234 227 224 224 229 227 215 211 211 210 218 221 223
180 243 268 275 269 266 266 264 260 255 253 257 258 261 256 278 278 278 279 281 283 279 278 283 288 283 234 240 236 242 239 240 226 221 225 226 222 213 212 211 213 216 219 221
310 273 243 254 284 331 257 244 251 250 248 250 253 260 275 274 281 283 286 289 280 276 282 284 286 291 290 248 245 246 247 247 229 224 225 224 218 212 211 215 218 218 218 220
232 244 268 286 307 259 262 316 293 280 262 257 261 264 271 275 277 277 277 284 283 283 278 282 287 292 308 316 299 282 269 249 228 229 231 230 221 216 214 215 218 218 219 219
227 224 248 246 256 276 283 278 262 274 280 280 271 260 266 271 279 278 288 273 277 286 309 338 331 319 313 310 302 293 275 253 231 232 233 231 224 213 211 210 211 212 214 217
234 230 226 241 253 266 275 279 271 259 257 41 354 335 342 339 274 282 8 1 349 346 347 336 322 310 307 310 312 296 274 249 233 234 230 225 223 217 212 215 210 212 214 213
179 197 229 241 246 248 275 331 295 238 286 320 301 302 306 302 321 315 322 325 321 329 335 333 322 316 324 325 326 311 295 268 263 249 233 218 216 213 215 209 206 204 198 200
238 237 232 234 250 258 150 25 246 313 297 273 264 283 313 299 298 306 321 315 327 342 345 338 323 334 345 347 347 334 335 318 261 205 192 193 195 197 196 193 189 190 188 180
240 232 249 230 245 223 296 235 283 266 255 252 247 258 249 278 292 297 299 316 328 333 330 335 343 342 1 7 10 4 353 33 130 134 138 150 166 171 177 175 167 162 172 165
244 249 251 263 266 277 295 309 265 229 226 225 235 252 264 280 288 291 286 264 297 324 338 334 347 12 16 25 44 65 75 101 116 115 118 127 130 138 148 154 153 149 154 158
270 282 251 258 268 278 272 265 243 239 246 254 262 251 255 255 269 267 290 307 298 329 331 333 24 31 39 48 56 65 74 109 112 110 105 101 104 110 118 123 136 142 164 182
249 250 251 256 268 273 276 281 218 229 238 242 249 263 227 234 252 263 259 287 307 320 265 84 142 123 66 67 84 80 95 116 120 110 112 116 120 120 113 109 102 98 127 166